Regional Weather Roundup
Issued by NWS

Home | Current Version | Previous Version | Graphics & Text | Print | Product List | Glossary On
Versions: 1 2 3 4 5 6 7 8 9 10 11 12 13 14 15 16 17 18 19 20 21 22 23 24 25 26 27 28 29 30 31 32 33 34 35 36 37 38 39 40 41 42 43 44 45 46 47 48 49 50
000
ASUS43 KLMK 301702
RWRKY
KENTUCKY REGIONAL WEATHER ROUNDUP
NATIONAL WEATHER SERVICE LOUISVILLE KY
100 PM EDT WED JUL 30 2014

NOTE "FAIR" INDICATES FEW OR NO CLOUDS BELOW 12,000 FEET
WITH NO SIGNIFICANT WEATHER AND/OR OBSTRUCTIONS TO VISIBILITY.

KYZ001>023-026-027-061>063-070>075-301800-
WESTERN AND SOUTH CENTRAL KENTUCKY

CITY           SKY/WX    TMP DP  RH WIND       PRES   REMARKS
PADUCAH        PTSUNNY   79  58  48 VRB6      30.12S
HENDERSON      MOSUNNY   81  61  50 SW9       30.10S
OWENSBORO      MOSUNNY   80  58  46 W7        30.11F
HOPKINSVILLE   CLOUDY    77  54  44 SW7       30.13S
BOWLING GREEN  MOSUNNY   81  52  36 W7        30.12F
GLASGOW        SUNNY     77  54  43 NW3       30.12F
$$

KYZ024-025-028>034-038-045-046-053-301800-
NORTH CENTRAL KENTUCKY

CITY           SKY/WX    TMP DP  RH WIND       PRES   REMARKS
LOUISVILLE/SDF MOSUNNY   80  56  43 W9        30.09F
LOUISVILLE/LOU MOSUNNY   78  54  43 VRB5      30.10F
FORT KNOX      MOSUNNY   78  59  52 VRB5      30.10F
$$

KYZ035>037-039>044-047>052-055>060-089>105-301800-
NORTHEAST KENTUCKY

CITY           SKY/WX    TMP DP  RH WIND       PRES   REMARKS
LEXINGTON      MOSUNNY   77  58  51 NW7       30.11F
COVINGTON      PTSUNNY   77  59  53 W13G20    30.08F
FRANKFORT      MOSUNNY   76  58  53 W9        30.09F
$$

KYZ054-064>069-076>088-106>120-301800-
SOUTHEAST KENTUCKY

CITY           SKY/WX    TMP DP  RH WIND       PRES   REMARKS
JACKSON        MOSUNNY   72  57  59 CALM      30.14S
LONDON         PTSUNNY   73  56  54 CALM      30.14F
SOMERSET       MOSUNNY   73  59  60 W3        30.13F
MIDDLESBORO    SUNNY     73  56  55 E5        30.14S
MONTICELLO     SUNNY     78  57  48 CALM      30.14F
$$



USA.gov is the U.S. government's official web portal to all federal, state and local government web resources and services.